Location: Αθήνα
(37.9839°N, 23.7283°E)
Time: 20:59:02
(UTC+03:00)

EO-79 - Pass Details

Date: 21 June 2024
Orbit: 555 x 577 km, 98.0° (Epoch: 18 July)

Event Time Altitude Azimuth Distance (km) Brightness Sun altitude
Rises 03:58:16 0° 26° (NNE) 2,748 ? -19.0°
Reaches altitude 10° 04:00:42 10° 39° (NE) 1,846 ? -18.8°
Maximum altitude 04:04:02 25° 96° (E) 1,128 ? -18.4°
Enters shadow 04:07:05 12° 151° (SSE) 1,736 ? -18.0°
